USA 115

导读

USA 115是美国于1995年11月6日发射的军用侦察卫星,属于美国反导预警体系重要组成部分,主要承担弹道导弹发射预警任务,通过红外探测手段捕捉导弹尾焰信号,为反导防御系统提供早期预警信息。该卫星运行在地球静止轨道附近,可长期对特定区域进行监视,至今已在轨超30年,是美国天基预警网络早期关键节点。

基本信息
目录编号:
23712
目录名称:
USA 115
国际标识:
1995-060A
轨道中心:
EARTH
卫星名称:
USA 115
卫星全名:
--
卫星状态:
在轨 (已飞行11181 天)
发射日期:
1995-11-06 UTC
国别 :
美国 (US)
星等 :
--
轨道信息
数据来源 国际轨道数据 AOE轨道数据
星历时间 2026-06-16T23:04:52+0800
17小时前
查看轨道信息
2026-06-16T13:00:00+0800
1天前
查看轨道信息
半长轴 42138.789km 42138.705km
偏心率 0.0001477 0.0001412
轨道倾角 14.073° 14.073°
近地点辐角 141.592° 139.645°
升交点赤经 3.755° 3.758°
平近点角 251.362° 101.533°
近地点 35754.428km 35754.618km
远地点 35766.876km 35766.518km
周期 1434.772分钟 1434.767分钟
每日圈数 1.003644 1.003647
详细信息
使用方式:
暂无
2D轨道图
3D轨道图
轨道高度分析图
轨道倾角分析图
轨道综合分析图
查看轨道综合分析图